Theta_e
321 323 324 325 327 330 330 330 330 331 332 333 332 330 330 330 329 327 328 330 330 330 329 329 329 329 331 332 332 334 334 336 335 333 332 333 333 333 332 332 332 332 332 331 331 334 330 329 329 330 331 330 329 328 328 327 327 327 326 325 326 327 328 329 327 326 324 324 326 326 326 330 330 329 328 328 327 328 326 325 325 326 328 328 327
321 322 323 325 328 330 330 330 331 329 331 332 331 330 330 330 328 328 328 329 330 329 329 330 330 330 330 331 333 334 334 334 333 333 334 333 333 332 332 332 332 332 333 331 331 331 329 329 329 330 332 331 330 329 328 329 327 326 326 323 325 328 327 328 327 326 321 321 320 321 323 326 327 327 326 326 327 327 325 324 324 326 328 327 324
317 321 323 325 327 329 330 330 330 331 330 331 331 330 329 328 327 327 328 329 329 330 330 329 330 332 332 332 333 333 335 336 335 334 334 333 333 332 332 332 332 332 332 332 330 330 330 330 329 330 330 332 330 328 328 326 327 326 325 325 326 328 328 328 327 323 321 323 323 320 318 317 321 324 326 326 327 326 325 324 323 324 327 324 323
318 321 322 325 327 329 329 329 329 330 329 329 329 329 328 327 326 328 328 329 329 329 330 331 332 333 333 333 333 334 332 334 333 332 331 331 331 332 332 332 332 332 332 332 331 330 329 329 329 330 330 331 330 329 328 326 326 325 325 326 327 325 326 325 327 323 324 322 316 316 317 317 314 317 320 324 327 325 326 325 323 324 325 323 321
319 321 323 324 326 327 328 329 328 327 328 329 328 328 328 327 327 328 328 328 329 329 330 330 332 331 332 331 332 331 331 331 330 330 331 331 332 331 331 332 332 332 332 332 331 330 329 329 329 330 330 329 330 330 328 327 326 326 326 325 326 326 324 325 326 325 324 323 320 316 314 314 314 318 320 320 324 324 325 325 326 324 325 322 321
320 321 323 324 325 327 327 328 327 326 327 329 329 328 327 326 327 328 328 328 328 329 330 330 330 330 329 329 327 328 328 327 326 328 328 329 330 331 332 332 332 331 332 332 332 332 329 329 329 329 328 328 329 330 329 328 326 326 326 326 325 327 327 325 324 325 324 322 320 316 318 314 314 319 319 312 322 323 324 326 325 324 323 322 320
321 322 323 323 324 325 325 326 326 326 326 327 328 327 327 326 327 328 328 328 330 329 330 330 329 330 330 330 329 329 328 329 329 329 330 330 330 329 330 330 331 331 330 332 332 332 330 329 328 329 329 328 330 329 328 327 327 327 327 326 326 326 326 324 324 324 323 321 321 319 319 317 321 318 314 317 314 319 322 322 322 324 324 324 322
320 321 321 321 322 323 323 325 325 325 325 326 328 328 327 326 326 327 328 329 330 330 330 331 329 328 329 329 330 329 329 328 328 327 328 329 328 328 328 329 330 330 330 331 332 332 330 329 328 328 328 328 330 329 328 327 327 328 328 328 326 326 325 324 324 325 322 321 320 319 319 319 321 314 318 316 314 313 316 322 321 320 322 324 324
320 320 319 319 320 321 322 323 323 322 323 325 327 328 327 325 325 324 326 327 328 329 330 331 330 328 328 328 328 327 327 327 327 328 327 328 327 327 328 329 329 329 330 330 331 331 331 329 328 327 327 328 331 328 328 328 327 326 326 326 325 325 325 324 325 324 323 320 319 314 317 317 316 315 317 315 313 314 315 317 318 320 319 318 320
321 321 321 318 317 317 318 320 319 320 322 325 326 327 327 325 323 323 324 325 326 328 330 330 330 329 328 328 328 327 326 325 326 327 326 326 327 326 327 328 328 328 328 330 330 330 329 329 328 327 327 328 330 328 328 328 328 327 327 326 326 325 324 325 324 324 324 321 321 317 314 314 315 314 314 312 313 313 313 315 318 317 316 316 317
320 321 321 321 321 320 320 320 321 321 322 324 325 325 326 325 319 321 322 322 324 328 330 329 329 328 328 328 328 326 324 324 325 327 328 328 327 326 326 327 327 327 327 328 329 329 328 329 328 328 328 329 330 328 328 328 328 327 327 326 326 325 324 324 323 323 323 322 320 320 319 319 317 314 315 314 312 310 314 316 319 319 317 314 316
319 320 319 319 318 319 319 319 319 320 321 322 323 325 325 325 323 321 321 323 326 328 328 328 329 328 327 327 327 327 328 328 326 327 328 327 327 326 325 325 325 324 326 327 327 328 328 328 329 328 328 328 329 329 329 328 328 328 327 326 326 326 325 324 323 322 321 321 320 319 320 320 318 317 317 317 315 313 316 316 317 318 317 313 314
316 316 316 316 316 316 317 317 318 319 319 321 324 325 326 326 326 324 323 324 327 328 327 327 328 327 327 327 327 329 329 330 330 329 329 328 326 325 324 323 324 323 324 325 326 327 327 327 327 328 328 329 330 329 328 329 327 326 327 326 325 325 325 324 323 322 323 322 321 319 320 320 318 317 318 317 315 316 317 316 318 318 313 311 309
314 314 315 315 315 316 316 316 318 319 321 322 323 325 326 326 326 325 324 325 326 327 327 327 327 327 327 328 328 329 329 329 329 329 328 327 325 325 324 324 324 325 325 325 326 327 327 328 328 329 329 328 329 328 328 328 327 326 326 326 325 325 324 324 324 323 323 323 322 320 319 320 317 319 319 318 316 316 316 317 317 314 308 309 308
309 309 310 311 312 314 316 317 317 319 320 321 322 324 325 325 324 324 323 324 325 326 327 326 325 324 326 327 327 327 328 329 328 328 326 325 324 324 324 325 325 326 326 327 326 326 327 327 327 326 327 327 328 327 328 328 327 327 327 327 326 325 324 324 323 322 323 322 320 321 321 320 318 319 319 319 319 318 317 317 317 312 306 306 306
308 308 308 309 310 311 312 314 317 319 320 321 322 323 323 324 324 322 322 322 323 324 325 324 324 325 325 327 328 327 328 327 324 322 325 325 324 324 324 325 326 327 327 325 325 326 326 326 326 327 327 327 327 327 327 328 327 327 326 326 325 327 324 323 322 322 323 322 321 319 321 321 320 320 320 319 319 319 319 318 318 315 309 304 304
306 306 307 307 308 309 310 311 313 314 316 317 319 321 321 322 323 322 321 321 321 320 322 323 323 325 325 327 328 328 328 325 324 322 323 324 324 324 324 324 325 326 326 326 325 325 326 326 326 327 326 326 327 327 328 328 327 327 326 325 325 325 324 323 321 322 322 321 320 320 322 321 320 320 321 319 319 319 319 320 319 316 313 308 304
305 305 305 306 306 307 308 309 311 311 313 314 316 318 321 322 323 323 322 321 320 319 321 322 323 322 324 326 327 326 327 326 325 324 325 323 323 324 323 323 324 325 326 326 325 325 326 330 327 326 325 325 326 327 328 328 327 327 326 326 326 325 324 322 322 322 321 321 320 320 320 320 319 321 321 320 319 319 319 319 318 315 313 310 307
302 302 303 303 304 304 306 307 309 310 311 312 314 315 317 319 321 321 321 323 321 322 321 322 324 324 324 324 325 324 324 326 327 325 325 324 323 323 323 324 323 324 325 325 325 325 325 325 326 326 326 326 326 327 327 327 327 326 325 325 325 325 324 322 321 322 321 322 320 320 317 319 319 321 320 319 319 319 319 319 317 315 314 310 309
300 301 301 302 303 304 304 305 306 307 308 309 311 312 313 315 316 318 321 322 323 324 322 321 323 324 324 325 324 324 325 326 325 324 324 325 324 323 323 323 323 324 324 325 326 325 324 324 325 326 325 325 325 326 327 326 326 325 324 324 324 324 324 323 321 322 323 322 321 320 319 319 318 319 319 319 319 319 319 318 317 314 312 311 309
299 299 300 301 302 303 304 304 305 306 307 308 309 309 311 312 313 315 317 319 321 323 324 323 324 325 325 324 323 323 324 326 325 325 325 325 325 324 324 323 324 323 324 324 324 324 324 325 325 325 325 324 325 325 326 326 325 324 324 324 324 325 324 322 322 321 322 322 322 321 320 319 319 320 319 319 319 319 318 318 317 313 312 309 309
298 298 299 299 300 301 302 303 303 303 304 304 306 307 308 309 310 312 314 316 318 322 323 324 325 325 325 325 323 324 325 326 324 324 324 324 324 324 323 323 323 323 325 325 325 325 324 325 325 326 326 325 325 325 325 325 325 324 323 324 324 324 323 322 321 322 321 323 321 321 321 319 320 321 319 320 320 319 319 318 317 315 312 308 308
296 297 297 298 299 300 300 301 301 301 302 303 304 305 306 307 308 309 310 312 315 318 322 323 325 325 325 325 324 324 325 324 323 322 322 322 323 322 323 323 323 324 324 324 325 324 325 325 325 325 324 324 324 324 323 324 324 324 323 323 323 323 322 321 321 321 322 321 320 320 320 320 320 319 318 319 319 319 319 319 318 317 314 310 306
296 297 297 297 298 298 299 299 299 300 301 302 303 304 304 305 306 307 308 310 312 315 318 321 322 323 325 325 325 324 324 323 322 321 321 321 322 323 325 324 323 323 323 324 325 325 325 324 323 322 322 322 323 323 322 324 325 324 323 323 321 322 322 322 322 322 322 322 321 319 319 319 319 319 317 316 317 319 319 320 319 317 318 315 308
295 295 296 296 296 296 297 298 298 299 300 301 301 302 303 304 305 305 306 308 310 313 316 320 321 320 321 322 323 323 323 322 322 321 320 322 323 324 324 324 323 322 323 323 324 324 323 323 322 321 321 321 322 322 322 321 322 323 323 323 321 321 321 321 322 322 325 322 321 321 320 320 319 319 315 316 317 318 320 319 317 318 318 316 313
294 295 295 295 295 296 296 296 297 298 298 299 300 301 302 302 303 304 305 306 308 311 313 317 321 321 319 320 321 321 321 321 321 321 322 323 323 323 323 323 324 323 323 323 322 322 323 323 321 319 319 319 320 320 320 320 320 319 320 320 320 320 320 319 319 320 322 321 321 321 320 321 320 320 318 316 316 318 317 317 317 318 318 315 311
293 294 294 295 294 294 295 296 296 297 297 298 299 300 301 301 302 304 304 305 307 309 311 313 319 321 320 319 319 320 321 322 322 322 323 323 323 322 322 322 323 323 322 321 322 322 321 319 315 314 313 313 313 314 314 314 315 316 317 317 318 318 317 316 316 318 320 320 320 319 318 320 321 320 319 318 317 316 317 316 317 317 319 315 312
293 293 293 293 293 294 294 295 295 296 297 297 299 300 300 301 301 303 304 305 307 308 310 313 318 320 320 320 319 319 320 321 322 322 323 323 322 322 322 322 322 320 319 321 321 318 314 312 310 309 308 309 309 309 308 309 312 314 314 314 316 316 315 313 313 314 316 318 317 317 318 319 321 321 320 318 318 316 315 315 316 317 316 313 311
292 292 293 293 293 293 294 294 295 296 296 296 297 298 299 300 301 302 303 304 306 307 309 314 318 319 319 320 319 319 320 320 320 321 322 322 322 321 321 320 320 318 317 319 317 313 310 307 306 306 305 306 306 304 304 305 310 312 313 313 313 315 314 314 313 314 315 315 315 314 314 315 318 324 317 316 316 316 316 315 313 314 315 313 308
291 292 292 293 293 293 293 294 294 295 295 295 296 297 298 299 300 302 303 304 306 306 308 310 314 318 319 320 319 319 319 320 320 321 321 321 321 320 319 319 318 317 314 313 312 311 307 305 304 303 303 302 301 301 301 299 304 309 311 313 313 313 315 315 315 314 312 313 312 311 316 319 315 315 312 309 307 310 313 317 314 316 315 313 309
291 291 292 292 293 293 293 293 294 294 295 296 296 297 298 299 300 301 302 304 305 305 306 307 308 312 317 319 318 319 319 319 319 320 319 318 318 318 317 316 315 313 312 310 309 307 305 305 304 302 301 300 298 298 295 294 296 304 310 312 314 314 314 315 315 315 313 311 309 309 310 314 311 308 304 300 303 304 305 308 309 312 315 314 310
290 291 291 291 292 292 292 293 293 294 295 296 296 297 298 298 299 300 302 304 304 305 305 305 307 308 310 316 319 319 318 318 318 317 318 317 317 316 314 312 310 309 309 308 306 304 303 302 301 301 300 299 298 296 293 295 296 301 307 312 313 315 315 314 312 313 312 310 309 307 305 307 310 310 305 303 303 299 297 296 295 294 294 295 301
290 290 291 291 291 292 293 293 294 294 295 296 296 296 296 298 298 300 302 302 303 303 304 304 305 305 307 308 316 317 316 316 316 316 316 316 315 312 310 308 306 306 306 304 302 302 300 300 300 300 299 299 298 294 294 296 297 301 302 308 312 312 313 312 312 311 310 308 306 305 303 302 304 311 308 304 303 301 299 299 300 300 299 297 295
290 291 291 291 292 292 293 294 294 295 295 296 297 297 297 298 299 300 301 301 302 302 303 303 304 305 305 306 308 315 315 315 315 314 313 311 309 308 306 305 304 304 303 301 300 299 299 299 300 300 299 298 298 295 295 298 299 299 300 305 311 311 310 310 309 308 307 304 302 301 300 300 300 302 304 305 305 304 306 308 306 304 303 302 298
290 290 291 291 292 292 293 293 293 295 295 295 295 296 297 298 298 298 299 300 301 301 302 303 303 304 304 304 306 308 314 312 311 310 309 307 305 304 303 302 301 301 300 298 298 297 298 298 298 299 298 297 296 294 296 297 298 298 299 302 307 306 303 302 301 300 299 299 298 298 297 297 298 299 301 306 309 309 308 306 303 301 300 300 300
291 291 291 291 292 292 292 293 295 294 294 294 294 294 296 297 297 297 298 299 300 300 300 301 302 303 304 304 304 305 309 310 309 308 306 305 304 303 301 301 300 298 297 296 295 296 296 296 297 297 297 296 295 294 296 297 297 297 299 304 303 302 300 299 298 298 297 297 297 297 296 295 295 297 297 300 305 310 309 306 303 300 298 298 299
292 292 292 292 292 292 293 294 293 293 293 293 293 293 295 296 296 296 297 298 298 298 299 300 301 302 303 304 304 304 304 306 306 306 305 303 302 301 301 301 299 298 296 295 294 294 295 295 295 295 295 295 295 294 295 296 296 297 299 302 300 299 298 298 298 299 299 300 299 296 295 294 294 294 293 294 297 302 304 302 300 298 297 296 296
292 293 293 293 293 293 293 293 292 292 292 293 293 293 295 295 295 296 296 296 296 297 298 299 299 301 302 304 304 304 303 303 303 303 303 303 302 302 301 301 298 296 295 295 295 295 295 296 295 295 295 295 294 294 294 296 296 297 300 301 300 298 297 297 296 297 298 298 300 302 299 295 294 294 291 292 294 298 299 298 296 295 295 294 295
293 292 292 292 292 293 292 291 291 291 292 292 292 292 293 293 294 294 295 295 295 296 297 298 299 300 301 302 304 304 304 303 302 302 302 302 301 300 300 299 297 297 296 297 297 296 296 296 296 297 299 295 294 295 293 294 296 297 300 301 300 298 297 296 296 296 297 297 297 297 297 296 295 293 291 292 293 296 296 295 295 295 294 294 294
293 294 294 293 293 292 292 291 290 290 291 292 292 291 292 292 292 293 293 294 295 296 296 298 298 299 300 301 302 303 303 303 303 303 303 302 301 300 299 298 297 297 296 297 297 296 296 296 296 296 296 295 294 294 294 293 295 296 298 302 301 299 297 296 297 297 296 296 296 296 295 291 291 290 290 291 292 293 296 295 296 295 295 294 294
293 293 295 293 293 293 292 292 292 292 293 293 293 292 291 291 292 291 292 294 296 297 296 296 297 298 299 299 300 301 302 303 303 303 303 302 301 300 299 298 297 297 297 297 296 296 296 295 296 296 296 296 296 294 294 292 293 294 296 298 299 298 297 296 296 296 296 296 296 296 295 292 291 291 291 291 291 292 294 296 296 295 294 293 292
295 295 295 294 293 293 293 293 293 294 294 294 294 293 292 292 291 291 291 295 297 297 297 296 295 296 297 297 298 299 300 301 302 303 302 302 302 302 300 299 298 297 297 296 296 296 295 295 295 295 295 295 297 296 294 292 292 293 293 295 297 297 297 296 296 296 296 296 295 295 294 292 291 291 291 291 291 291 291 292 287 287 287 289 295
293 293 294 295 293 293 293 293 294 294 294 294 294 294 293 293 292 292 293 295 296 297 297 297 296 295 295 296 296 297 298 299 299 300 301 301 301 302 301 300 299 298 297 297 296 296 295 295 294 294 294 294 294 295 293 293 291 291 291 292 293 294 293 298 297 295 294 294 294 294 294 293 291 291 291 291 291 291 291 288 288 288 289 290 293
294 294 294 294 293 294 293 294 294 294 294 294 294 293 294 293 293 295 294 295 296 297 297 297 296 295 294 294 295 295 296 296 297 298 298 299 300 301 301 300 299 298 297 297 297 296 296 295 294 294 294 294 294 293 293 291 291 290 290 290 291 291 293 296 296 294 294 294 294 293 293 291 291 291 291 291 290 291 291 291 291 291 292 293 295
292 293 294 294 293 292 293 293 294 294 294 294 294 294 294 293 294 296 295 295 296 296 296 296 296 296 295 294 294 294 294 295 295 296 296 296 297 299 300 300 300 299 298 297 296 296 295 294 294 293 293 293 293 293 292 292 291 291 290 290 290 290 291 292 294 294 293 293 291 291 291 291 291 291 291 291 291 291 290 290 291 292 295 293 293
291 292 293 293 293 293 292 292 293 293 294 294 294 294 293 294 295 296 296 296 296 296 295 295 296 296 295 295 293 293 293 294 294 295 295 295 295 296 297 298 299 298 298 297 295 295 294 293 293 292 292 292 293 293 292 292 292 293 292 290 290 291 292 292 293 292 291 291 291 291 291 291 291 291 292 291 291 291 290 290 291 292 291 291 291
290 291 291 291 292 292 293 293 292 292 292 293 294 294 295 295 295 296 296 296 295 295 295 295 295 296 296 295 293 292 292 292 293 293 293 294 294 293 294 294 296 297 297 296 295 294 294 293 292 292 292 292 292 291 291 291 291 291 291 292 293 293 293 293 294 293 293 292 292 292 291 290 290 290 290 290 290 290 290 290 290 289 289 289 289
288 289 290 291 291 291 292 293 293 292 292 293 293 294 295 295 295 296 296 296 295 294 295 295 295 296 295 295 294 290 291 291 291 291 291 291 292 292 291 290 290 291 295 295 294 294 293 293 292 292 292 292 292 291 290 290 290 291 291 291 292 292 292 292 292 292 292 293 291 291 290 290 290 290 289 289 288 288 288 287 288 288 288 288 290
289 289 288 288 290 292 292 292 292 293 293 294 293 294 295 295 295 296 296 295 294 294 294 295 295 295 295 295 295 294 293 292 291 291 290 289 289 291 291 291 291 291 292 294 294 293 293 293 293 292 292 291 291 291 290 288 288 288 289 292 292 291 292 291 292 291 292 291 290 289 289 289 288 287 286 286 286 286 286 286 287 287 286 287 286
290 291 290 290 292 291 291 291 291 292 292 292 292 293 294 295 295 296 296 294 294 293 294 294 294 294 294 295 294 294 294 293 292 292 291 291 288 289 290 291 290 290 289 289 290 291 292 292 291 291 290 291 291 291 288 287 288 288 289 289 289 289 290 291 290 290 291 288 287 287 286 286 286 285 285 284 284 284 284 284 284 285 285 285 285
288 289 289 290 290 292 292 291 291 292 292 292 291 291 292 293 295 296 295 294 294 293 293 293 293 293 292 293 294 294 293 293 293 293 292 291 291 291 289 289 289 289 289 289 289 289 289 289 291 291 289 288 288 288 288 288 288 289 289 289 289 290 290 290 290 290 288 287 287 286 285 285 284 285 284 283 283 283 283 283 283 283 283 283 283
Wind_Speed
3 9 8 8 8 7 7 7 8 8 8 10 11 11 12 14 14 14 11 11 12 12 12 11 10 7 6 7 8 8 9 7 6 5 6 5 6 7 7 7 6 6 5 5 6 5 5 4 5 4 6 6 6 7 8 7 6 7 6 4 8 8 6 6 6 7 8 5 4 5 4 4 4 4 3 2 2 0 1 3 2 2 3 3 2
8 9 7 7 7 8 8 7 11 13 11 12 12 12 14 14 13 9 10 12 12 14 14 13 12 11 11 10 9 8 8 7 6 6 7 6 7 7 7 7 7 7 6 6 6 6 6 5 5 5 5 6 5 4 5 6 6 6 6 4 2 7 5 7 7 7 3 5 5 4 3 3 4 3 3 3 2 2 2 1 4 3 4 3 2
7 6 7 7 9 10 8 8 8 11 12 12 11 12 10 7 6 9 10 11 11 11 13 14 13 11 11 8 11 7 6 5 6 5 6 7 7 7 7 7 8 7 7 7 7 6 7 7 6 5 5 6 5 4 5 6 6 8 8 8 6 2 4 6 7 1 6 5 5 5 2 1 1 1 2 2 3 2 2 2 2 2 4 2 1
8 8 9 9 10 9 7 8 8 6 6 8 10 9 8 9 7 10 10 10 9 8 8 10 15 15 12 9 8 7 5 5 4 5 6 7 7 7 7 7 8 8 7 7 6 6 7 7 6 5 5 5 6 7 6 7 6 7 6 7 8 8 4 4 4 2 6 10 5 1 2 1 3 3 1 1 2 2 3 2 1 2 3 2 2
11 12 12 12 11 11 10 8 6 7 9 11 9 10 9 12 11 11 11 11 8 8 8 5 5 8 8 6 5 5 4 5 5 6 8 9 8 8 9 8 8 8 7 7 7 7 6 6 6 6 6 5 6 6 7 8 9 8 8 8 8 10 8 4 4 2 6 1 7 5 3 2 2 1 3 1 2 3 2 3 3 2 3 2 2
15 15 15 15 13 11 8 8 9 10 11 9 7 10 10 10 10 10 9 10 9 7 7 4 5 7 8 9 9 8 8 9 12 13 10 10 10 8 8 8 8 7 7 7 7 6 7 6 6 6 6 6 5 6 6 6 7 8 9 9 8 7 9 8 6 3 6 4 0 1 3 5 5 3 3 3 1 1 3 3 3 2 2 2 1
8 9 10 10 10 10 10 11 13 13 12 6 7 9 9 8 9 10 10 10 10 7 6 4 6 7 11 13 13 14 14 10 6 5 6 5 5 7 7 7 7 8 7 7 7 7 6 6 6 6 6 5 5 5 6 7 7 8 7 7 7 7 6 9 9 6 4 3 2 0 0 1 6 8 4 4 3 0 1 2 1 2 2 2 3
9 8 5 5 9 12 14 14 12 12 8 7 8 9 10 9 9 10 8 9 9 6 6 5 5 4 5 6 7 9 8 6 7 6 6 6 6 6 5 6 6 7 8 7 7 7 6 6 6 6 6 6 5 6 8 7 6 5 7 6 6 7 8 9 8 6 9 6 2 1 0 2 6 2 2 4 4 5 4 2 1 3 1 2 3
5 7 7 6 5 6 5 8 7 4 6 8 10 9 8 5 6 6 8 8 7 4 5 5 3 2 2 2 3 2 1 4 5 4 5 6 7 6 5 5 6 5 6 7 7 6 6 7 6 6 7 7 6 5 6 7 8 8 6 6 6 6 7 6 8 8 6 6 5 2 4 3 3 2 3 2 3 4 2 4 3 2 1 1 1
7 7 7 8 9 9 9 7 3 2 1 3 4 3 5 4 4 4 6 5 4 4 5 5 3 1 2 1 1 1 1 3 4 5 4 4 6 6 5 6 6 6 6 6 6 6 6 6 6 7 7 7 6 5 5 6 6 7 8 8 6 7 5 6 8 7 7 5 5 5 4 3 3 1 1 2 2 1 5 8 4 5 5 3 1
7 8 9 9 8 10 11 10 11 11 8 5 5 6 5 4 2 2 1 1 0 1 2 3 2 1 2 2 1 1 2 3 4 4 4 4 5 5 6 6 5 5 5 5 6 6 6 6 7 7 6 6 6 6 6 8 7 8 7 7 7 8 6 6 4 4 6 6 6 7 7 9 8 6 7 5 3 3 4 4 3 4 3 4 2
9 8 9 10 11 11 11 13 14 14 13 11 9 8 8 8 7 6 5 5 5 3 0 0 0 1 2 3 2 2 3 3 4 4 5 5 5 4 2 2 3 5 6 6 6 6 6 6 6 6 6 6 6 6 6 7 6 6 6 7 7 6 5 6 5 6 6 6 6 6 7 7 6 6 6 7 7 5 7 7 6 4 1 1 1
9 9 9 9 8 9 8 8 10 11 10 12 9 7 7 8 9 8 6 6 5 4 2 1 1 1 2 2 2 2 3 3 4 5 6 6 6 6 7 5 2 3 5 6 7 8 7 7 7 7 6 6 6 6 6 7 7 6 6 6 6 6 6 6 6 6 8 8 7 5 6 6 6 3 6 6 4 5 6 7 3 4 2 2 0
9 10 10 9 9 7 6 5 4 5 7 6 6 5 3 3 5 6 5 5 4 2 1 1 1 1 3 2 0 3 4 6 6 6 6 7 7 8 7 7 8 7 6 7 8 8 7 8 8 8 7 7 6 6 6 6 7 7 6 7 6 6 5 6 7 6 6 6 5 6 6 6 5 5 6 6 7 7 6 8 7 3 2 3 0
11 10 9 10 11 10 8 7 4 3 4 6 5 4 4 3 1 3 4 2 1 1 0 0 3 5 3 0 2 5 6 7 7 7 7 8 8 8 7 7 8 8 7 7 5 8 7 7 6 4 5 6 6 6 6 6 6 6 6 7 6 5 6 6 6 6 7 6 5 6 6 5 5 5 7 7 6 7 9 8 9 8 2 1 1
9 9 10 10 10 11 11 11 9 9 7 5 5 5 4 3 1 1 1 0 2 1 4 4 5 7 6 7 6 6 6 4 2 1 4 7 8 8 8 7 6 5 4 2 3 6 7 6 6 8 8 6 6 6 6 6 6 7 6 6 6 4 6 6 5 6 6 7 6 5 5 6 5 6 6 7 6 6 7 7 8 9 10 5 1
8 8 6 8 9 9 9 9 9 10 11 11 11 9 7 5 4 2 2 3 2 2 3 2 1 7 9 6 4 7 10 7 7 5 5 6 6 7 6 6 6 6 6 5 7 6 5 6 7 6 5 5 5 6 6 6 7 7 7 7 7 5 6 7 5 6 5 5 5 6 7 6 6 5 5 5 6 5 6 7 8 10 9 9 7
10 10 9 10 11 12 11 9 11 12 12 12 13 11 8 7 6 4 4 5 3 4 4 1 2 3 3 5 3 2 6 4 7 8 7 6 5 5 3 4 6 5 5 5 6 7 5 7 7 4 2 2 5 5 6 6 7 6 7 7 6 6 6 4 5 5 5 5 4 4 4 5 4 6 6 5 6 6 7 7 7 5 6 10 7
10 11 11 12 12 12 12 11 11 11 11 11 12 11 11 10 9 9 8 5 6 7 5 5 5 5 5 5 5 8 10 7 6 9 8 7 7 6 6 5 3 4 6 8 8 7 6 5 5 5 4 6 6 6 6 6 6 6 5 6 5 6 6 5 4 5 4 5 5 5 3 4 4 5 5 5 5 5 6 6 6 5 5 4 7
10 10 10 10 11 12 12 12 12 12 11 11 11 10 12 11 11 11 10 8 7 5 5 4 5 5 7 8 8 6 6 7 4 6 7 9 8 8 7 4 4 4 6 7 6 6 6 6 5 6 6 5 6 6 7 6 6 5 6 5 5 5 5 5 5 4 4 5 5 5 5 4 4 4 5 5 6 5 5 6 6 6 4 3 4
10 10 10 11 12 12 12 12 10 9 8 9 9 10 9 9 12 12 12 12 10 8 6 5 4 6 6 7 4 4 8 8 8 10 10 8 6 5 5 4 4 3 5 6 5 5 5 6 7 7 8 8 7 6 6 6 6 6 6 6 6 6 6 5 4 4 4 5 6 5 5 4 4 5 5 5 5 5 5 5 5 5 5 4 6
11 11 10 10 11 11 11 10 10 10 11 12 11 9 10 10 10 11 11 10 11 9 6 6 4 7 8 8 7 8 10 8 6 6 7 7 6 6 4 5 7 5 7 6 3 3 3 5 7 7 8 9 7 6 6 6 7 6 6 5 6 6 6 5 4 5 4 4 5 5 5 4 4 5 4 4 5 5 6 6 5 6 6 5 4
11 11 10 9 8 8 8 10 10 11 10 11 10 10 9 9 9 10 10 11 11 10 7 5 4 6 8 9 9 7 6 6 6 5 5 5 5 5 6 6 8 8 8 7 5 3 4 4 5 7 8 7 6 6 6 6 6 7 7 6 6 7 6 6 5 5 5 4 4 4 5 4 4 4 4 5 4 5 5 7 6 5 6 5 5
11 11 10 8 8 8 9 11 11 11 11 11 9 9 8 7 7 8 9 12 11 10 11 8 5 4 6 7 8 8 7 8 8 5 5 5 5 7 9 10 9 8 8 6 3 5 4 6 2 5 7 6 6 6 6 6 7 7 7 7 6 6 6 6 7 6 6 6 6 5 5 5 5 5 4 5 4 5 6 6 6 2 5 1 4
12 12 12 12 11 12 11 11 10 10 10 9 9 8 7 7 6 7 7 9 9 9 9 10 8 5 3 4 6 7 8 9 8 5 5 4 6 7 8 10 9 8 7 6 3 2 4 5 7 9 6 6 7 7 7 5 5 6 7 7 6 6 6 6 6 6 6 6 6 7 6 5 5 5 4 5 5 5 6 3 7 2 6 4 3
11 12 14 15 13 11 12 13 12 12 12 12 12 12 11 10 9 8 9 9 10 9 10 10 7 6 4 5 6 6 8 9 5 5 8 7 8 9 8 8 10 11 8 5 6 4 5 5 9 5 5 5 5 6 6 6 6 5 5 5 6 6 6 5 5 5 6 6 7 6 5 6 6 7 6 4 5 5 4 7 10 8 6 5 5
9 9 9 11 12 14 13 13 12 12 12 12 12 13 14 14 15 14 11 9 9 9 9 9 8 6 6 7 7 8 8 9 10 10 9 8 8 9 9 8 7 7 8 7 7 8 4 4 3 4 5 5 5 4 5 5 5 5 5 5 5 5 4 4 4 5 5 5 5 5 5 6 7 7 6 6 5 4 5 8 9 8 7 5 5
10 11 12 12 12 13 14 14 15 14 13 13 12 12 12 13 14 14 14 12 11 10 8 8 8 6 6 7 7 7 8 10 9 7 9 8 8 7 8 7 9 9 9 10 10 8 5 5 5 5 4 5 6 5 4 4 4 5 5 5 5 5 4 4 4 4 4 4 4 4 5 6 6 6 6 5 6 6 5 6 7 7 6 6 6
12 13 13 13 14 14 15 15 14 14 16 14 13 13 12 13 12 12 13 12 12 12 11 9 6 5 5 3 5 6 8 8 5 5 7 10 10 9 8 8 7 6 7 8 7 9 8 6 5 5 5 4 6 4 3 4 5 4 5 6 5 5 5 5 3 3 2 2 0 0 0 0 1 3 4 5 6 6 6 7 3 3 5 6 3
11 12 13 12 13 14 14 14 15 15 16 16 15 15 14 13 13 12 11 11 12 11 12 11 9 7 3 2 5 6 8 6 4 5 7 9 11 10 9 9 10 8 7 5 7 7 9 9 8 5 5 5 4 3 2 4 2 5 6 6 5 5 5 5 5 4 3 4 4 4 4 7 6 6 4 4 9 12 7 2 8 7 4 5 4
11 11 12 12 12 13 13 14 14 14 14 13 12 12 12 12 12 12 12 12 11 10 10 11 13 11 9 3 4 6 6 5 2 2 5 6 9 8 8 8 8 8 8 7 7 7 9 7 8 8 7 5 4 2 5 5 4 5 5 6 7 5 4 5 5 6 5 5 5 5 4 6 6 6 4 9 8 5 5 6 7 4 5 5 6
10 10 11 12 12 13 13 14 14 13 13 12 12 12 12 12 13 13 12 12 11 11 10 10 10 10 10 9 4 4 3 2 2 1 5 8 8 8 9 9 7 8 6 8 7 7 9 7 7 7 7 5 4 4 5 5 4 5 6 6 6 6 5 5 4 5 5 5 6 6 5 4 4 4 3 5 7 7 7 10 11 10 10 7 3
10 10 11 11 11 11 11 12 11 11 12 12 12 12 12 13 13 13 12 12 12 11 12 11 11 11 11 11 8 0 1 2 3 4 2 8 10 9 10 10 9 5 4 7 9 9 7 6 7 8 7 5 4 5 5 5 6 8 9 9 6 6 7 6 6 6 6 5 5 5 5 5 4 6 5 4 7 9 12 15 15 16 14 13 13
8 9 9 10 9 9 10 10 11 11 11 11 11 11 10 10 11 11 11 11 11 12 11 12 12 12 11 10 11 6 3 2 3 7 5 8 9 9 9 9 8 6 4 5 9 9 7 7 6 8 7 5 5 6 5 7 11 12 12 11 7 8 8 8 7 6 6 6 5 5 5 5 4 4 3 4 6 7 7 7 6 7 8 10 11
9 10 10 9 9 10 11 11 11 11 11 11 11 11 10 10 11 11 11 11 11 11 12 12 12 12 12 13 10 9 5 7 6 5 6 8 10 9 9 8 7 6 4 6 7 8 7 7 6 6 8 7 5 6 8 12 14 14 14 12 8 9 9 9 8 7 7 7 6 6 6 5 4 5 4 3 7 7 7 7 9 9 9 8 9
7 8 8 9 9 9 9 10 9 9 9 9 10 10 9 10 9 10 11 11 11 11 12 12 13 12 13 12 12 10 7 8 9 7 7 10 9 9 10 6 8 6 5 7 7 7 7 7 6 6 8 8 6 9 10 13 15 14 15 9 9 9 9 9 8 7 7 6 5 6 6 6 5 6 7 8 10 8 8 8 9 8 9 7 8
6 5 6 6 7 7 8 8 8 8 9 9 9 9 9 9 10 10 11 11 12 12 13 13 12 12 12 13 12 10 9 8 10 9 7 9 12 11 8 4 8 8 9 7 7 8 7 7 7 6 9 8 7 9 8 12 14 16 12 9 9 9 9 9 8 7 7 7 6 5 5 5 6 6 7 8 10 12 8 8 8 8 6 7 6
5 6 6 7 7 7 8 8 8 9 9 9 9 9 9 10 11 11 12 12 12 12 12 12 12 12 11 10 12 10 10 8 10 11 7 6 9 9 8 6 8 9 8 6 6 9 9 8 8 8 6 9 7 9 9 9 10 12 13 10 8 10 9 8 7 7 6 7 9 13 8 6 7 6 8 10 7 9 9 7 8 7 7 7 6
6 7 8 8 8 7 6 7 9 10 11 9 9 9 10 10 11 11 10 11 12 12 12 12 11 11 11 9 10 12 11 11 12 11 8 7 8 9 9 8 7 6 8 6 5 9 10 9 8 8 12 11 8 8 11 10 11 10 10 9 9 9 10 7 7 7 6 6 7 8 11 8 7 7 11 11 9 7 7 5 6 8 8 7 3
7 6 6 6 5 7 9 10 10 10 9 10 8 8 9 9 10 9 11 12 12 11 10 9 10 10 10 11 8 11 13 12 11 11 10 10 7 8 9 9 7 6 7 7 6 9 11 9 7 9 9 9 9 8 10 11 10 11 9 8 7 10 10 8 6 6 7 6 6 6 8 10 10 11 12 12 11 9 7 4 5 7 8 6 1
5 6 6 6 6 6 7 7 7 8 9 8 8 8 10 9 9 11 12 11 10 9 9 9 9 10 11 11 10 10 12 11 9 10 10 10 8 7 8 8 8 6 5 7 9 9 10 10 9 8 9 10 8 8 10 13 11 12 11 8 7 8 8 8 7 7 6 6 6 6 5 8 10 12 13 13 13 12 10 8 7 7 4 3 2
4 5 5 6 6 7 7 8 8 8 8 8 8 10 9 9 10 12 11 9 10 10 9 9 10 11 11 11 12 11 9 9 8 10 11 10 8 7 7 8 7 8 7 7 9 9 10 10 9 9 9 9 11 14 9 13 14 13 12 10 8 6 5 9 9 7 6 6 5 5 5 8 13 14 15 15 15 13 12 8 6 7 5 6 6
6 6 7 5 6 6 7 7 7 7 7 7 9 9 9 9 11 10 8 8 9 9 10 10 10 11 11 11 11 12 11 9 8 9 10 11 9 7 6 8 9 8 7 7 8 8 10 10 9 8 8 9 9 9 13 11 14 14 12 11 11 9 8 7 9 8 6 6 6 7 8 13 16 17 16 16 15 16 13 9 9 9 8 8 7
4 3 4 4 5 5 6 7 6 6 6 6 7 8 8 10 11 8 8 9 9 9 9 10 10 10 10 10 11 11 11 10 9 9 10 9 9 8 6 6 8 7 7 7 6 6 8 9 9 8 8 8 7 7 11 14 12 15 13 11 11 11 10 8 8 8 6 7 8 8 9 15 16 17 18 18 17 14 11 13 13 12 12 10 8
3 4 4 3 4 4 5 6 6 7 7 6 5 7 8 9 9 8 9 9 9 9 10 10 10 10 10 8 9 10 10 10 9 9 10 9 8 7 6 6 7 7 7 7 7 7 8 7 7 7 6 6 6 8 7 10 13 12 13 11 10 11 11 13 12 8 8 9 10 13 14 14 14 15 16 15 14 15 17 16 15 14 11 8 8
4 4 6 4 4 4 5 6 7 7 8 6 6 5 7 7 7 7 8 8 9 9 10 9 9 9 9 9 9 9 10 10 10 9 9 8 8 7 6 5 6 6 6 6 6 7 7 7 7 5 5 6 7 6 6 7 7 7 8 10 11 13 15 17 16 13 14 15 14 15 16 15 14 12 11 10 9 10 15 16 16 14 9 8 7
4 4 4 5 5 6 6 6 7 7 6 6 6 6 4 4 6 7 7 7 8 9 9 9 8 7 8 9 9 8 8 10 10 9 9 8 8 7 7 7 6 4 4 5 6 6 6 5 5 6 6 6 5 4 6 6 6 5 5 5 6 9 13 14 11 9 10 11 13 13 11 13 12 15 14 12 10 10 11 10 9 8 7 7 7
3 4 3 4 5 5 6 6 6 6 5 5 5 5 5 5 5 5 6 6 7 8 7 8 9 7 6 7 7 9 9 8 9 10 9 9 8 7 8 7 6 5 4 6 6 6 6 5 5 5 4 4 4 5 6 5 5 4 4 5 5 6 7 7 9 8 8 8 8 8 10 8 8 9 9 9 8 8 8 8 8 7 7 7 7
5 5 4 4 4 5 5 4 5 5 5 5 5 6 5 5 5 4 5 5 7 7 7 7 7 7 7 6 7 7 6 7 8 9 8 7 6 6 6 6 5 3 5 5 6 6 5 4 4 4 4 4 4 5 3 3 5 5 2 5 6 6 6 7 7 10 9 7 8 9 8 9 9 8 8 8 7 8 8 7 8 7 7 7 7
4 3 4 4 4 4 5 5 5 5 5 5 5 5 5 4 4 4 5 6 5 5 6 6 6 6 6 6 5 6 6 6 6 6 7 8 10 12 8 6 6 9 15 13 9 6 3 3 5 4 3 1 4 2 3 6 5 5 8 10 8 8 8 9 10 12 11 9 8 8 7 7 7 7 7 7 6 6 6 7 7 6 7 7 7
3 4 5 5 6 5 5 4 4 4 4 4 4 4 5 5 4 4 4 4 4 4 4 4 5 5 4 4 4 4 4 4 5 5 4 6 7 9 13 13 12 12 14 15 14 12 11 9 5 3 4 6 5 5 5 3 5 7 10 11 11 11 11 10 11 12 10 8 8 8 7 7 6 6 6 6 5 6 5 6 6 6 6 6 5
Wind_Direction
98 101 117 142 150 146 135 133 134 141 151 161 157 152 157 169 177 182 175 176 179 176 175 172 183 189 205 202 202 194 202 200 196 155 179 184 175 175 179 185 187 184 183 174 169 171 170 171 162 158 147 145 173 181 162 163 156 141 137 134 137 131 133 133 126 124 118 99 86 85 74 74 109 98 82 84 85 73 55 97 96 66 93 86 70
81 93 118 124 136 135 137 139 146 153 174 176 171 169 180 182 182 161 174 185 192 190 178 173 179 184 186 196 192 193 192 189 184 176 185 179 178 181 182 183 183 183 179 177 170 169 168 180 182 172 158 158 183 194 150 149 136 131 136 110 156 147 138 144 148 132 82 132 137 123 80 70 97 104 128 114 117 116 107 125 118 103 86 79 80
69 98 117 134 135 144 151 156 168 178 172 178 182 181 186 183 173 170 191 194 209 215 180 177 174 176 181 186 187 186 193 181 178 174 172 178 182 184 184 181 178 183 182 178 174 178 178 178 188 174 159 152 157 174 154 148 152 152 160 150 146 122 109 142 157 85 126 112 93 97 111 91 42 77 109 119 147 135 117 114 132 129 102 88 128
104 127 139 139 146 149 155 163 174 173 177 184 189 179 182 196 181 181 197 204 213 255 247 185 173 173 178 170 173 167 168 162 151 156 171 172 182 185 187 181 180 181 183 181 179 179 179 184 181 174 170 159 159 167 171 161 163 164 159 158 149 138 145 160 163 182 142 132 124 150 121 48 136 224 137 149 144 149 146 154 158 129 105 122 159
131 136 142 150 153 163 170 163 162 180 200 198 179 183 193 195 185 182 190 208 213 225 236 226 177 157 151 126 132 124 93 153 171 191 183 184 179 181 191 183 180 180 182 184 183 181 183 182 177 179 174 166 162 169 178 177 176 170 163 156 167 156 157 146 182 170 171 147 133 130 92 201 235 115 126 53 146 141 148 158 160 134 136 160 134
143 149 156 162 163 157 163 165 170 197 208 201 188 198 194 196 186 184 193 202 213 213 221 214 195 170 159 158 158 173 191 178 193 192 182 186 188 184 182 183 180 179 182 185 188 181 181 185 180 175 179 172 168 176 180 164 169 171 173 165 164 171 152 156 167 197 190 189 173 99 148 165 166 170 159 186 63 57 133 128 113 111 123 118 131
129 145 152 152 154 158 175 186 193 195 205 177 200 208 202 198 189 187 194 206 210 204 199 210 210 200 189 185 183 187 193 199 179 167 181 181 168 181 182 182 183 178 185 186 188 187 181 181 182 182 178 177 172 165 175 179 178 179 168 166 169 153 150 160 176 168 176 260 236 335 83 207 147 147 190 103 155 257 166 114 93 130 145 151 166
141 148 148 155 168 176 184 199 197 202 181 183 206 212 206 196 188 188 196 209 215 202 195 202 226 245 245 241 218 205 190 168 164 163 150 152 155 172 171 185 187 189 183 188 189 187 180 180 180 175 175 183 175 181 178 178 173 181 181 165 150 164 166 166 175 167 179 197 183 264 24 131 144 46 143 159 134 154 163 91 85 133 146 175 187
137 147 165 175 188 212 218 206 205 188 187 196 204 213 212 192 192 183 196 207 212 192 183 194 203 220 236 267 302 335 151 133 131 126 139 150 155 154 170 185 193 193 193 188 188 185 180 179 176 176 178 185 185 180 177 172 175 175 174 157 165 176 182 172 162 178 183 182 143 78 89 115 110 52 116 91 134 152 116 173 166 87 92 295 223
47 28 20 14 5 356 347 344 344 319 247 223 241 250 235 210 201 191 205 211 205 182 169 188 195 156 170 136 153 185 104 84 121 132 139 147 161 159 166 181 191 189 192 197 187 185 181 177 178 182 187 184 180 168 165 168 178 181 181 181 172 179 186 170 177 175 181 167 156 140 122 108 81 65 131 120 66 45 166 183 176 160 165 219 154
44 38 27 20 16 14 5 3 351 351 353 357 330 320 312 287 306 294 298 13 28 258 180 191 183 104 140 117 108 158 139 125 125 137 139 151 177 169 174 189 183 183 186 192 191 182 180 180 184 191 189 185 173 163 175 174 182 182 182 180 177 180 181 174 174 167 165 162 158 159 160 168 175 177 186 176 158 148 118 157 143 164 177 177 234
38 37 28 26 21 21 22 13 357 350 355 0 357 342 332 326 336 346 7 17 17 17 44 335 8 71 105 137 165 171 160 153 159 156 155 169 175 164 148 195 201 176 188 184 187 184 178 185 191 192 191 189 186 175 175 176 176 176 173 179 187 187 175 171 172 164 167 171 169 171 175 183 180 177 180 168 167 166 158 160 159 127 122 258 123
28 30 30 26 22 24 21 27 12 356 349 345 344 348 346 338 335 347 7 19 13 18 14 337 208 140 135 134 156 163 165 159 158 161 170 174 170 163 163 190 236 224 203 190 190 183 178 182 190 193 196 198 189 175 180 173 167 171 171 177 182 183 181 176 176 185 175 177 181 181 174 181 189 159 148 162 136 138 144 142 137 135 138 180 1
23 25 23 21 20 10 360 18 33 351 333 318 328 344 339 332 335 343 19 44 16 22 340 321 276 109 48 22 156 165 182 174 180 177 178 176 183 188 173 181 194 204 218 206 189 182 185 190 190 195 195 192 186 179 174 169 165 170 170 174 183 187 172 179 188 186 186 189 160 165 182 186 174 164 159 151 154 141 150 157 146 136 106 169 23
22 23 19 14 11 7 3 356 351 334 332 329 334 343 359 6 33 70 45 38 151 236 350 114 66 79 82 41 191 243 220 192 184 181 179 185 196 190 170 179 199 194 206 232 188 185 189 189 179 201 215 193 179 172 174 168 167 164 171 178 179 175 180 176 186 178 184 182 178 179 178 182 169 172 163 175 167 170 157 160 151 143 85 84 140
19 15 14 11 8 8 10 5 360 1 355 4 356 352 357 354 91 139 162 140 325 174 147 161 147 122 171 211 202 216 231 186 129 199 207 200 202 199 182 179 199 194 187 241 249 217 187 185 168 202 207 190 177 174 171 169 167 162 164 166 178 175 171 178 182 178 186 182 181 170 165 187 170 172 180 176 178 168 159 158 166 157 151 172 184
15 11 356 352 5 9 9 2 2 6 10 11 10 2 352 343 334 312 254 240 188 264 267 291 121 147 176 214 234 211 215 183 165 189 231 227 215 214 194 174 173 189 183 186 221 220 183 160 180 212 208 188 179 178 171 170 167 164 163 167 175 172 168 183 170 178 185 173 174 176 184 177 174 171 178 178 170 160 169 171 177 169 170 153 167
360 1 358 356 356 358 359 2 5 2 3 6 7 5 3 354 346 327 294 297 291 244 227 221 96 125 177 209 196 321 302 197 174 191 218 210 224 230 213 165 184 186 173 182 212 208 175 173 166 165 266 274 209 181 176 171 164 164 164 170 172 163 169 166 177 174 173 170 170 174 173 170 161 166 183 175 171 172 170 181 187 185 165 166 169
4 3 1 360 354 350 349 351 355 0 2 3 3 7 5 4 356 347 338 314 288 271 236 201 195 184 193 202 185 192 217 218 194 188 201 207 206 216 215 200 171 166 164 181 201 197 180 176 171 155 169 221 217 182 175 169 164 155 154 156 158 162 163 173 176 168 169 162 168 182 180 165 160 166 160 166 175 170 179 177 185 170 189 176 168
2 357 356 353 349 347 346 345 351 355 359 360 359 3 6 359 356 350 340 333 334 302 260 236 211 195 198 206 210 207 219 226 194 194 196 206 200 200 205 192 168 168 182 187 193 187 176 166 172 161 148 208 214 175 169 163 156 156 150 148 163 156 165 176 178 178 161 167 168 179 186 174 167 153 159 166 175 181 171 174 178 179 173 147 135
356 352 348 350 347 345 343 344 349 351 357 1 5 6 0 356 355 352 348 344 340 334 329 281 242 230 231 237 217 204 231 229 209 192 195 201 199 187 198 168 117 170 181 173 178 194 177 170 171 175 166 190 203 167 167 157 157 158 159 158 158 163 172 177 174 181 176 166 170 179 189 185 159 166 172 163 166 173 168 175 174 170 159 150 147
354 350 347 346 344 343 340 343 350 359 1 2 3 1 5 2 353 349 343 345 338 333 327 312 246 225 227 229 224 223 226 229 215 205 193 190 176 186 158 126 136 182 196 178 162 166 142 193 184 174 170 185 184 165 161 162 162 160 162 162 160 166 173 175 175 185 177 177 164 174 187 180 176 169 163 169 169 163 169 167 180 181 171 175 177
349 345 343 342 341 337 338 345 349 357 357 359 359 0 358 356 353 349 343 336 334 329 317 296 270 238 226 228 237 241 247 255 237 215 202 177 166 131 117 136 152 172 201 187 155 139 209 184 199 176 170 170 168 162 163 165 170 167 165 166 165 168 171 172 181 187 183 168 168 178 189 181 167 163 171 174 161 161 160 178 188 187 178 169 187
351 343 341 341 344 345 351 355 359 357 356 355 354 353 352 354 350 345 342 336 329 326 320 306 288 269 256 238 228 237 235 236 236 226 204 180 152 144 147 154 161 167 185 180 129 163 202 172 178 213 175 166 163 161 167 173 171 170 167 168 166 171 173 176 180 184 179 176 182 185 200 183 170 178 174 165 177 162 168 170 182 109 79 177 210
352 347 342 342 347 356 357 356 356 353 354 353 353 354 351 349 348 348 343 333 322 321 317 310 296 280 271 271 258 238 227 235 235 227 222 181 167 161 162 161 154 162 173 150 112 155 166 166 196 206 169 168 168 165 168 173 173 173 171 167 167 169 177 180 183 183 178 180 179 192 193 179 180 187 181 164 177 181 195 145 92 167 177 174 190
353 347 349 349 349 349 355 358 358 359 357 353 351 353 353 354 356 353 347 342 335 324 317 310 284 268 265 257 253 257 251 246 226 222 224 194 176 170 162 160 158 161 153 150 158 173 180 190 204 181 158 159 160 162 166 171 173 171 167 165 168 175 177 172 179 181 181 183 184 190 183 180 183 193 197 176 175 188 154 124 160 193 188 162 157
358 350 345 347 351 353 352 355 358 357 359 356 354 355 356 353 351 353 351 345 335 328 314 305 290 251 241 239 247 250 241 236 224 211 211 192 171 161 159 161 148 144 136 141 171 177 150 201 177 133 134 133 125 125 135 152 163 165 164 165 171 176 167 172 186 186 185 187 188 175 175 181 185 194 188 184 175 162 150 160 174 183 198 181 177
360 358 358 357 353 353 355 354 352 353 355 355 355 356 354 354 346 342 343 342 341 330 307 296 288 260 234 230 225 223 224 226 222 204 194 169 152 155 164 158 139 135 138 168 177 152 132 172 129 115 109 116 117 109 111 124 143 156 157 168 173 170 166 179 188 193 180 188 188 180 181 188 191 189 190 179 165 154 158 170 195 184 178 182 194
357 358 358 357 359 355 353 351 348 347 353 352 354 353 351 352 352 348 346 339 335 332 325 324 306 276 256 216 187 195 212 220 200 191 177 161 156 156 154 143 140 129 139 165 156 129 143 120 97 109 110 102 103 105 110 117 128 137 147 150 163 163 167 169 171 163 155 149 108 53 39 158 227 192 175 166 137 139 157 183 151 121 174 185 181
360 358 357 357 355 354 351 348 348 348 349 352 352 351 350 346 344 340 339 337 339 332 330 331 337 328 283 217 187 200 214 215 193 187 166 154 154 152 148 149 149 137 122 122 128 139 135 127 123 115 105 98 92 98 66 72 95 137 141 136 137 152 154 150 137 123 92 73 71 75 68 74 68 73 79 111 155 180 204 158 147 184 174 177 150
4 359 356 353 353 352 350 349 347 345 346 346 343 338 337 342 343 341 341 339 339 337 338 342 342 337 331 265 202 213 215 211 182 210 150 143 138 137 130 124 129 131 138 138 127 143 122 130 131 131 114 100 93 59 35 62 71 111 128 133 139 139 132 132 143 136 120 99 78 74 69 59 59 55 67 98 131 135 169 171 152 155 176 179 168
5 359 355 354 353 351 349 346 343 343 343 344 342 337 338 341 344 343 340 338 345 349 349 344 335 334 341 326 242 221 216 207 114 345 171 139 127 131 124 115 112 115 128 129 136 127 120 124 119 109 98 94 84 35 47 69 92 109 126 123 128 132 126 103 93 95 99 98 88 71 53 42 44 61 81 93 101 99 85 76 88 83 74 53 64
7 1 355 350 349 344 342 339 341 342 340 340 342 344 349 345 342 337 337 346 351 354 355 352 344 342 343 341 326 321 82 89 85 83 202 133 129 123 117 119 111 89 100 134 130 116 111 114 111 105 93 77 79 27 55 86 106 104 103 101 86 94 95 90 84 86 88 85 84 78 62 45 17 36 60 88 105 93 85 88 92 89 77 74 70
6 2 352 349 345 344 342 343 343 339 340 337 342 348 341 340 340 338 346 349 353 356 360 356 355 356 352 345 348 333 96 64 64 95 100 103 99 101 100 97 95 100 126 133 113 112 112 105 101 103 97 75 63 9 55 103 103 96 93 88 85 84 81 76 72 75 77 71 68 81 73 49 26 42 48 86 101 104 101 91 72 64 68 58 54
7 359 354 349 347 344 344 345 346 342 342 343 342 344 340 349 350 345 350 353 356 0 2 358 1 2 1 2 346 359 8 61 50 80 93 97 98 93 89 91 98 104 118 104 107 107 98 98 92 94 91 70 35 17 99 109 102 98 91 90 89 87 82 77 70 70 74 77 75 77 79 68 48 52 23 96 107 103 100 95 81 67 53 48 43
8 358 348 347 346 341 339 338 338 344 345 350 345 336 343 351 345 353 356 358 356 5 7 360 4 2 10 7 1 9 357 71 62 34 85 83 73 79 85 73 94 87 64 75 66 73 79 73 67 78 86 69 38 40 104 108 106 100 94 90 89 87 88 83 78 74 75 71 70 74 77 63 55 60 33 86 109 110 99 96 89 86 76 58 54
1 351 346 346 342 338 337 337 342 350 355 350 342 344 347 352 357 1 3 1 1 9 6 6 359 358 6 17 7 16 10 51 78 60 20 82 95 77 69 74 86 75 74 51 66 71 60 60 60 64 82 75 54 29 79 106 109 106 95 96 94 90 86 84 77 73 73 70 64 63 68 71 60 56 26 67 95 106 96 95 95 84 81 73 49
350 348 356 358 350 342 345 347 344 357 357 348 350 352 356 3 2 2 6 4 7 6 4 3 4 358 355 17 21 20 27 27 57 62 44 41 75 79 68 52 73 91 79 68 69 75 65 57 55 56 60 83 61 31 50 84 96 100 109 108 105 101 92 91 88 73 75 73 63 65 70 68 66 52 43 64 69 98 104 113 111 102 74 62 34
357 357 354 352 352 343 339 350 0 1 347 348 352 359 12 10 4 1 5 9 4 4 3 1 0 0 359 359 33 33 33 33 48 52 46 41 52 74 77 69 62 73 88 83 70 78 74 61 50 55 53 63 60 37 36 60 80 93 103 109 109 106 100 91 93 84 68 71 67 58 58 58 72 65 62 61 62 85 102 115 120 100 89 71 20
358 356 348 341 342 354 1 1 357 345 337 348 349 4 17 14 3 360 10 7 358 356 355 1 3 5 10 10 359 51 44 33 39 50 43 43 47 70 79 82 72 64 84 88 84 78 80 67 57 55 55 50 55 45 30 44 70 72 82 105 113 111 111 107 93 90 85 62 59 60 55 53 72 73 70 67 61 68 94 99 101 98 103 96 138
360 351 343 346 354 1 358 351 347 342 346 345 349 8 15 9 7 13 6 353 344 346 1 5 11 15 17 17 11 27 55 50 36 53 58 54 44 53 73 79 80 69 60 86 83 84 80 73 60 56 58 51 48 56 40 40 50 64 68 86 91 100 111 108 102 86 80 82 69 58 59 46 66 71 71 68 66 63 68 74 66 80 75 126 138
8 1 1 351 351 355 354 355 353 351 348 350 354 12 8 5 13 10 351 340 351 353 360 11 19 22 21 19 19 16 33 45 46 56 56 54 53 46 58 74 71 73 61 55 76 78 80 75 66 57 55 55 47 47 55 42 44 49 58 74 93 83 96 111 97 92 88 76 67 64 58 61 70 71 70 69 66 66 67 72 67 88 97 91 91
359 3 360 0 354 352 348 344 340 347 353 354 1 8 4 7 14 354 337 346 0 4 7 13 20 23 25 24 20 21 21 27 35 48 62 62 43 45 52 68 73 69 67 61 62 68 76 75 69 58 53 53 48 47 42 48 44 44 41 59 77 87 79 88 105 102 94 89 73 79 75 74 73 71 68 67 65 65 62 67 80 80 82 87 85
343 351 351 355 2 355 349 341 341 346 353 359 9 3 5 11 3 340 348 358 6 10 14 22 21 20 23 28 26 21 23 22 23 42 54 51 62 47 33 63 76 73 72 65 50 57 68 70 70 61 50 44 39 46 44 42 44 45 41 42 63 77 85 92 91 96 94 95 91 83 86 81 78 75 72 69 65 64 70 67 67 70 67 62 65
329 333 346 355 358 351 346 343 341 347 345 354 4 11 7 5 342 345 358 1 3 10 22 24 23 21 20 23 34 30 25 25 28 34 49 47 45 57 54 37 64 71 67 69 62 57 59 58 54 55 52 46 35 38 39 37 42 47 47 47 55 73 81 92 87 80 82 87 97 96 85 78 76 73 70 69 62 57 58 60 59 58 60 57 58
345 346 351 344 350 359 8 356 347 349 343 340 349 13 14 348 334 343 350 0 8 13 18 19 22 22 21 21 30 34 35 30 32 35 46 46 49 48 55 44 50 60 70 75 75 71 65 60 61 48 47 46 41 40 35 34 32 39 48 51 63 75 85 87 92 95 97 94 89 82 77 70 63 62 61 57 59 55 55 53 51 51 53 51 47
324 318 340 346 354 353 353 354 351 343 340 333 338 348 356 351 358 350 349 356 14 15 13 10 14 22 21 25 33 26 28 32 33 35 38 41 40 47 51 41 36 39 62 80 73 76 74 75 77 59 48 39 38 39 37 40 32 42 43 39 64 77 85 88 86 86 83 80 74 74 77 77 78 70 69 66 61 51 51 46 46 46 52 51 54
306 307 337 340 346 341 339 344 339 331 333 333 338 339 340 352 1 352 354 358 20 19 17 7 4 9 27 25 32 33 39 37 33 34 34 32 33 38 56 46 29 5 23 59 57 53 53 61 72 72 76 64 48 43 36 32 22 32 48 61 67 74 75 87 90 85 85 82 83 75 65 55 59 54 51 47 46 49 50 50 44 43 42 42 45
321 316 335 325 316 322 322 327 325 325 333 334 335 336 337 347 349 353 4 14 16 15 21 16 6 5 16 31 34 28 32 48 51 46 44 36 29 27 52 66 40 34 54 58 71 62 49 42 56 50 59 77 53 50 19 12 18 12 39 100 91 93 93 82 95 107 95 75 69 62 59 56 53 58 51 49 44 48 46 43 47 41 39 43 44
297 308 313 322 319 317 318 320 316 326 334 335 327 326 325 331 348 355 4 15 16 15 24 22 12 14 0 17 43 37 30 31 40 52 60 52 41 46 45 68 55 45 65 68 77 74 52 45 72 41 6 51 118 117 18 33 33 57 75 86 95 94 96 100 88 79 85 79 70 72 60 65 60 61 61 55 51 52 54 48 40 35 38 44 42
305 339 325 330 318 319 321 318 324 332 339 345 342 333 333 333 345 344 1 5 26 15 18 20 25 20 10 16 22 48 56 47 32 33 37 67 67 40 39 45 58 59 60 59 56 52 46 39 45 77 33 39 70 72 69 69 77 83 90 96 98 100 103 112 108 83 56 72 80 77 71 67 68 72 75 73 67 67 61 65 52 47 43 42 41